{"data":{"norad_id":69005,"epoch":"2026-09-19T23:41:35.867616Z","epoch_age_seconds":63268,"freshness":"FRESH","line1":"1 69005U 26100AB  26262.98722069  .00002166  00000+0  10128-3 0  9999","line2":"2 69005  97.3897 159.0330 0006617  57.4210 302.7664 15.20814519 21226","mean_motion":15.20814519,"eccentricity":0.0006617,"inclination_deg":97.3897,"raan_deg":159.033,"arg_perigee_deg":57.421,"mean_anomaly_deg":302.7664,"bstar":0.00010128,"rev_number":2122,"period_min":94.686102875113,"perigee_km":498.82894221492,"apogee_km":507.93594504662,"semimajor_km":6881.5194436308,"source":"CELESTRAK","updated_at":"2026-09-20T09:00:24.627062Z"}}